• în România
  • Lista ţărilor
  • Pe 7 zile
  • Temperatura apei
  • Hartă satelitară
  • Meteo pe hartă
  • Widget-uri
  • user-avatar
    Intrare

    Meteo pe oră la Pahar

    Astăzi, 23 Iunie, Sâmbătă

    Timp Temperatura Precipitaţii Vânt Presiune Umiditate
    00:00 +15°C° 0 mm 2 m/s 748 mmHg 83%
    01:00 +15°C° 0 mm 2 m/s 748 mmHg 84%
    02:00 +14°C° 0 mm 2 m/s 748 mmHg 86%
    03:00 +14°C° 0 mm 1 m/s 748 mmHg 86%
    04:00 +15°C° 0 mm 2 m/s 748 mmHg 82%
    05:00 +16°C° 0 mm 2 m/s 748 mmHg 78%
    06:00 +18°C° 0 mm 2 m/s 749 mmHg 74%
    07:00 +19°C° 0 mm 2 m/s 749 mmHg 67%
    08:00 +21°C° 0 mm 2 m/s 749 mmHg 60%
    09:00 +24°C° 0 mm 2 m/s 749 mmHg 50%
    10:00 +25°C° 0 mm 3 m/s 749 mmHg 47%
    11:00 +26°C° 0 mm 3 m/s 749 mmHg 45%
    12:00 +27°C° 0 mm 3 m/s 749 mmHg 42%
    13:00 +27°C° 0 mm 3 m/s 749 mmHg 43%
    14:00 +27°C° 0 mm 3 m/s 749 mmHg 43%
    15:00 +28°C° 0 mm 3 m/s 749 mmHg 44%
    16:00 +27°C° 0 mm 2 m/s 749 mmHg 49%
    17:00 +27°C° 0 mm 2 m/s 748 mmHg 53%
    18:00 +26°C° 0 mm 2 m/s 748 mmHg 58%
    19:00 +24°C° 0 mm 1 m/s 748 mmHg 63%
    20:00 +22°C° 0 mm 1 m/s 748 mmHg 69%
    21:00 +18°C° 0 mm 0 m/s 748 mmHg 74%
    22:00 +18°C° 0 mm 0 m/s 749 mmHg 76%
    23:00 +17°C° 0 mm 0 m/s 749 mmHg 78%

    Mâine, 24 Iunie, Duminică

    Timp Temperatura Precipitaţii Vânt Presiune Umiditate
    00:00 +17°C° 0 mm 0 m/s 749 mmHg 79%
    01:00 +17°C° 0 mm 0 m/s 749 mmHg 80%
    02:00 +16°C° 0 mm 0 m/s 749 mmHg 81%
    03:00 +16°C° 0 mm 0 m/s 749 mmHg 83%
    04:00 +17°C° 0 mm 0 m/s 749 mmHg 79%
    05:00 +19°C° 0 mm 0 m/s 750 mmHg 75%
    06:00 +20°C° 0 mm 0 m/s 750 mmHg 71%
    07:00 +22°C° 0 mm 0 m/s 750 mmHg 67%
    08:00 +24°C° 0 mm 0 m/s 750 mmHg 62%
    09:00 +27°C° 0 mm 1 m/s 750 mmHg 58%
    10:00 +28°C° 0 mm 1 m/s 750 mmHg 55%
    11:00 +29°C° 0 mm 1 m/s 750 mmHg 52%
    12:00 +30°C° 0 mm 1 m/s 750 mmHg 49%
    13:00 +30°C° 0 mm 1 m/s 750 mmHg 48%
    14:00 +31°C° 0 mm 1 m/s 750 mmHg 47%
    15:00 +31°C° 0 mm 1 m/s 750 mmHg 46%
    16:00 +31°C° 0 mm 1 m/s 750 mmHg 50%
    17:00 +30°C° 0 mm 1 m/s 750 mmHg 54%
    18:00 +30°C° 0 mm 1 m/s 750 mmHg 57%
    19:00 +28°C° 0 mm 1 m/s 750 mmHg 62%
    20:00 +26°C° 0 mm 1 m/s 750 mmHg 66%
    21:00 +24°C° 0 mm 1 m/s 751 mmHg 71%
    22:00 +23°C° 0 mm 1 m/s 751 mmHg 73%
    23:00 +23°C° 0 mm 1 m/s 751 mmHg 75%

    Poimâine, 25 Iunie, Luni

    Timp Temperatura Precipitaţii Vânt Presiune Umiditate
    00:00 +22°C° 0 mm 1 m/s 751 mmHg 77%
    01:00 +22°C° 0 mm 1 m/s 751 mmHg 79%
    02:00 +22°C° 0 mm 1 m/s 751 mmHg 80%
    03:00 +21°C° 0 mm 1 m/s 751 mmHg 81%
    04:00 +23°C° 0 mm 1 m/s 751 mmHg 78%
    05:00 +24°C° 0 mm 1 m/s 752 mmHg 74%
    06:00 +25°C° 0 mm 1 m/s 752 mmHg 71%
    07:00 +26°C° 0 mm 1 m/s 752 mmHg 66%
    08:00 +28°C° 0 mm 1 m/s 752 mmHg 61%
    09:00 +29°C° 0 mm 1 m/s 752 mmHg 56%
    10:00 +30°C° 0 mm 1 m/s 752 mmHg 53%
    11:00 +31°C° 0 mm 1 m/s 752 mmHg 50%
    12:00 +32°C° 0 mm 1 m/s 752 mmHg 47%
    13:00 +32°C° 0 mm 1 m/s 752 mmHg 46%
    14:00 +32°C° 0 mm 1 m/s 752 mmHg 45%
    15:00 +33°C° 0 mm 1 m/s 752 mmHg 44%
    16:00 +32°C° 0 mm 1 m/s 752 mmHg 48%
    17:00 +32°C° 0 mm 1 m/s 752 mmHg 53%
    18:00 +31°C° 0 mm 1 m/s 752 mmHg 57%
    19:00 +29°C° 0 mm 1 m/s 752 mmHg 62%
    20:00 +27°C° 0 mm 1 m/s 752 mmHg 67%
    21:00 +25°C° 0 mm 1 m/s 752 mmHg 72%
    22:00 +25°C° 0 mm 1 m/s 752 mmHg 75%
    23:00 +24°C° 0 mm 1 m/s 752 mmHg 78%

    26 Iunie, Marţi

    Timp Temperatura Precipitaţii Vânt Presiune Umiditate
    00:00 +23°C° 0 mm 1 m/s 752 mmHg 82%
    01:00 +23°C° 0 mm 1 m/s 752 mmHg 83%
    02:00 +23°C° 0 mm 1 m/s 752 mmHg 84%
    03:00 +22°C° 0 mm 1 m/s 752 mmHg 86%
    04:00 +24°C° 0 mm 1 m/s 752 mmHg 82%
    05:00 +25°C° 0 mm 1 m/s 752 mmHg 79%
    06:00 +26°C° 0 mm 1 m/s 752 mmHg 76%
    07:00 +27°C° 0 mm 1 m/s 752 mmHg 71%
    08:00 +28°C° 0 mm 2 m/s 752 mmHg 66%
    09:00 +30°C° 0 mm 2 m/s 752 mmHg 62%
    10:00 +30°C° 0 mm 2 m/s 752 mmHg 57%
    11:00 +31°C° 0 mm 2 m/s 752 mmHg 53%
    12:00 +33°C° 0 mm 3 m/s 752 mmHg 49%
    13:00 +33°C° 0 mm 3 m/s 752 mmHg 49%
    14:00 +33°C° 0 mm 3 m/s 752 mmHg 48%
    15:00 +33°C° 0 mm 3 m/s 752 mmHg 48%
    16:00 +33°C° 0 mm 3 m/s 752 mmHg 53%
    17:00 +31°C° 0 mm 3 m/s 752 mmHg 58%
    18:00 +30°C° 0 mm 3 m/s 752 mmHg 63%
    19:00 +28°C° 0 mm 3 m/s 752 mmHg 68%
    20:00 +27°C° 0 mm 2 m/s 752 mmHg 73%
    21:00 +25°C° 0 mm 2 m/s 752 mmHg 79%
    22:00 +24°C° 0 mm 2 m/s 752 mmHg 81%
    23:00 +24°C° 0 mm 3 m/s 752 mmHg 82%

    27 Iunie, Miercuri

    Timp Temperatura Precipitaţii Vânt Presiune Umiditate
    00:00 +22°C° 0 mm 3 m/s 752 mmHg 84%
    01:00 +22°C° 0 mm 3 m/s 752 mmHg 82%
    02:00 +21°C° 0 mm 3 m/s 752 mmHg 80%
    03:00 +20°C° 0 mm 3 m/s 752 mmHg 79%
    04:00 +21°C° 0 mm 3 m/s 752 mmHg 76%
    05:00 +22°C° 0 mm 3 m/s 752 mmHg 74%
    06:00 +24°C° 0 mm 3 m/s 752 mmHg 71%
    07:00 +25°C° 0 mm 3 m/s 752 mmHg 68%
    08:00 +27°C° 0 mm 3 m/s 752 mmHg 65%
    09:00 +28°C° 0 mm 4 m/s 752 mmHg 62%
    10:00 +29°C° 0 mm 4 m/s 752 mmHg 58%
    11:00 +30°C° 0 mm 4 m/s 751 mmHg 54%
    12:00 +32°C° 0 mm 4 m/s 751 mmHg 50%
    13:00 +33°C° 0 mm 4 m/s 751 mmHg 50%
    14:00 +33°C° 0 mm 4 m/s 751 mmHg 50%
    15:00 +33°C° 0 mm 4 m/s 751 mmHg 50%
    16:00 +32°C° 0 mm 4 m/s 751 mmHg 55%
    17:00 +30°C° 0 mm 3 m/s 751 mmHg 60%
    18:00 +30°C° 0 mm 3 m/s 750 mmHg 64%
    19:00 +28°C° 0,1 mm 3 m/s 751 mmHg 69%
    20:00 +26°C° 0,1 mm 2 m/s 751 mmHg 75%
    21:00 +25°C° 0,1 mm 2 m/s 751 mmHg 80%
    22:00 +24°C° 0,2 mm 2 m/s 751 mmHg 82%
    23:00 +23°C° 0,2 mm 2 m/s 750 mmHg 85%

    28 Iunie, Joi

    Timp Temperatura Precipitaţii Vânt Presiune Umiditate
    00:00 +23°C° 0,2 mm 2 m/s 750 mmHg 87%
    01:00 +21°C° 0 mm 2 m/s 750 mmHg 89%
    02:00 +21°C° 0 mm 2 m/s 750 mmHg 90%
    03:00 +20°C° 0 mm 2 m/s 750 mmHg 92%
    04:00 +21°C° 0 mm 3 m/s 750 mmHg 89%
    05:00 +22°C° 0 mm 3 m/s 750 mmHg 86%
    06:00 +24°C° 0 mm 3 m/s 750 mmHg 83%
    07:00 +26°C° 0 mm 4 m/s 751 mmHg 77%
    08:00 +27°C° 0 mm 4 m/s 751 mmHg 72%
    09:00 +28°C° 0 mm 4 m/s 751 mmHg 66%
    10:00 +29°C° 0 mm 4 m/s 750 mmHg 63%
    11:00 +30°C° 0 mm 4 m/s 750 mmHg 59%
    12:00 +32°C° 0 mm 5 m/s 750 mmHg 56%
    13:00 +32°C° 0 mm 5 m/s 750 mmHg 56%
    14:00 +32°C° 0 mm 5 m/s 750 mmHg 55%
    15:00 +32°C° 0 mm 5 m/s 750 mmHg 55%
    16:00 +30°C° 0 mm 5 m/s 750 mmHg 59%
    17:00 +29°C° 0 mm 4 m/s 750 mmHg 63%
    18:00 +28°C° 0 mm 4 m/s 750 mmHg 66%
    19:00 +27°C° 0 mm 4 m/s 750 mmHg 71%
    20:00 +25°C° 0 mm 4 m/s 750 mmHg 75%
    21:00 +24°C° 0 mm 3 m/s 750 mmHg 79%
    22:00 +22°C° 0 mm 4 m/s 750 mmHg 79%
    23:00 +21°C° 0 mm 4 m/s 750 mmHg 80%
    Arată mai mult